Time,TemperatureF,DewpointF,PressureIn,WindDirection,WindDirectionDegrees,WindSpeedMPH,WindSpeedGustMPH,Humidity,HourlyPrecipIn,Conditions,Clouds,dailyrainin,SoftwareType,DateUTC
2013-01-26 00:01:00,51.7,37.7,30.13,SW,225,0.9,1.1,59,0.00,,,0.00,WUHU216HW,2013-01-26 07:01:00,
2013-01-26 00:06:00,51.7,38.2,30.13,SW,225,0.2,1.1,60,0.00,,,0.00,WUHU216HW,2013-01-26 07:06:00,
2013-01-26 00:11:00,51.7,37.7,30.13,SW,225,0.0,1.1,59,0.00,,,0.00,WUHU216HW,2013-01-26 07:11:00,
2013-01-26 00:16:00,51.7,38.2,30.13,WNW,293,0.4,0.7,60,0.00,,,0.00,WUHU216HW,2013-01-26 07:16:00,
2013-01-26 00:21:00,51.8,38.3,30.12,WNW,293,0.0,0.7,60,0.00,,,0.00,WUHU216HW,2013-01-26 07:21:00,
2013-01-26 00:26:00,51.8,38.3,30.12,WNW,293,0.0,0.4,60,0.00,,,0.00,WUHU216HW,2013-01-26 07:26:00,
2013-01-26 00:31:00,51.8,38.3,30.12,WNW,293,0.0,0.0,60,0.00,,,0.00,WUHU216HW,2013-01-26 07:31:00,
2013-01-26 00:36:00,51.8,38.3,30.12,WNW,293,0.0,0.0,60,0.00,,,0.00,WUHU216HW,2013-01-26 07:36:00,
2013-01-26 00:41:00,51.8,38.3,30.12,WNW,293,0.0,0.0,60,0.00,,,0.00,WUHU216HW,2013-01-26 07:41:00,
2013-01-26 00:46:00,51.8,38.3,30.12,NW,315,0.0,0.0,60,0.00,,,0.00,WUHU216HW,2013-01-26 07:46:00,
2013-01-26 00:51:00,51.8,38.3,30.12,NW,315,0.0,0.0,60,0.00,,,0.00,WUHU216HW,2013-01-26 07:51:00,
2013-01-26 00:56:00,51.8,38.3,30.11,NW,315,0.0,0.0,60,0.00,,,0.00,WUHU216HW,2013-01-26 07:56:00,
2013-01-26 01:01:00,51.8,38.3,30.11,NW,315,0.0,0.0,60,0.00,,,0.00,WUHU216HW,2013-01-26 08:01:00,
2013-01-26 01:06:00,51.8,38.3,30.11,NW,315,0.0,0.0,60,0.00,,,0.00,WUHU216HW,2013-01-26 08:06:00,
2013-01-26 01:11:00,51.8,38.3,30.11,NW,315,0.0,0.0,60,0.00,,,0.00,WUHU216HW,2013-01-26 08:11:00,
2013-01-26 01:16:00,51.8,38.3,30.11,NW,315,0.0,0.0,60,0.00,,,0.00,WUHU216HW,2013-01-26 08:16:00,
2013-01-26 01:21:00,51.8,38.8,30.11,NNW,338,0.0,0.4,61,0.00,,,0.00,WUHU216HW,2013-01-26 08:21:00,
2013-01-26 01:26:00,51.8,38.8,30.11,North,0,0.9,0.9,61,0.00,,,0.00,WUHU216HW,2013-01-26 08:26:00,
2013-01-26 01:31:00,51.8,38.8,30.11,North,0,0.4,1.1,61,0.00,,,0.00,WUHU216HW,2013-01-26 08:31:00,
2013-01-26 01:36:00,51.8,38.8,30.11,North,0,0.0,1.1,61,0.00,,,0.00,WUHU216HW,2013-01-26 08:36:00,
2013-01-26 01:41:00,51.7,39.4,30.11,NNW,338,0.0,0.9,63,0.00,,,0.00,WUHU216HW,2013-01-26 08:41:00,
2013-01-26 01:46:00,51.7,39.9,30.12,North,0,0.7,0.7,64,0.00,,,0.00,WUHU216HW,2013-01-26 08:46:00,
2013-01-26 01:51:00,51.7,40.2,30.11,NE,45,0.7,0.7,65,0.00,,,0.00,WUHU216HW,2013-01-26 08:51:00,
2013-01-26 01:56:00,51.7,39.9,30.11,ENE,68,1.3,1.3,64,0.00,,,0.00,WUHU216HW,2013-01-26 08:56:00,
2013-01-26 02:01:00,51.7,39.9,30.10,NNE,23,0.4,1.3,64,0.00,,,0.00,WUHU216HW,2013-01-26 09:01:00,
2013-01-26 02:06:00,51.8,40.0,30.10,NE,45,1.6,1.6,64,0.00,,,0.00,WUHU216HW,2013-01-26 09:06:00,
2013-01-26 02:11:00,51.8,40.0,30.10,NNE,23,1.1,1.6,64,0.00,,,0.00,WUHU216HW,2013-01-26 09:11:00,
2013-01-26 02:16:00,51.7,39.9,30.10,ENE,68,0.7,1.8,64,0.00,,,0.00,WUHU216HW,2013-01-26 09:16:00,
2013-01-26 02:21:00,51.5,39.7,30.09,NE,45,2.2,2.2,64,0.00,,,0.00,WUHU216HW,2013-01-26 09:21:00,
2013-01-26 02:26:00,51.5,39.7,30.09,NE,45,0.0,2.2,64,0.00,,,0.00,WUHU216HW,2013-01-26 09:26:00,
2013-01-26 02:31:00,51.3,39.5,30.09,NNW,338,0.2,1.1,64,0.00,,,0.00,WUHU216HW,2013-01-26 09:31:00,
2013-01-26 02:36:00,51.3,39.5,30.09,North,0,0.0,0.7,64,0.00,,,0.00,WUHU216HW,2013-01-26 09:36:00,
2013-01-26 02:41:00,51.3,39.5,30.09,NNE,23,0.4,1.3,64,0.00,,,0.00,WUHU216HW,2013-01-26 09:41:00,
2013-01-26 02:46:00,51.3,39.5,30.09,NNE,23,0.0,1.3,64,0.00,,,0.00,WUHU216HW,2013-01-26 09:46:00,
2013-01-26 02:51:00,51.3,39.1,30.09,North,0,1.8,2.0,63,0.00,,,0.00,WUHU216HW,2013-01-26 09:51:00,
2013-01-26 02:56:00,51.3,39.1,30.09,NNE,23,0.9,2.0,63,0.00,,,0.00,WUHU216HW,2013-01-26 09:56:00,
2013-01-26 03:01:00,51.5,39.7,30.08,ENE,68,1.3,2.5,64,0.00,,,0.00,WUHU216HW,2013-01-26 10:01:00,
2013-01-26 03:06:00,51.5,39.7,30.08,NE,45,2.2,2.9,64,0.00,,,0.00,WUHU216HW,2013-01-26 10:06:00,
2013-01-26 03:11:00,51.5,39.2,30.09,East,90,1.6,2.9,63,0.00,,,0.00,WUHU216HW,2013-01-26 10:11:00,
2013-01-26 03:16:00,51.5,39.2,30.09,East,90,1.1,2.9,63,0.00,,,0.00,WUHU216HW,2013-01-26 10:16:00,
2013-01-26 03:21:00,51.5,39.2,30.09,ENE,68,1.1,1.8,63,0.00,,,0.00,WUHU216HW,2013-01-26 10:21:00,
2013-01-26 03:26:00,51.1,39.3,30.08,NE,45,0.4,2.2,64,0.00,,,0.00,WUHU216HW,2013-01-26 10:26:00,
2013-01-26 03:31:00,50.9,39.2,30.08,NE,45,0.9,2.2,64,0.00,,,0.00,WUHU216HW,2013-01-26 10:31:00,
2013-01-26 03:36:00,50.8,38.6,30.08,North,0,0.0,1.1,63,0.00,,,0.00,WUHU216HW,2013-01-26 10:36:00,
2013-01-26 03:41:00,50.8,38.6,30.09,WSW,248,2.5,2.5,63,0.00,,,0.00,WUHU216HW,2013-01-26 10:41:00,
2013-01-26 03:46:00,50.8,38.6,30.09,WSW,248,0.9,2.5,63,0.00,,,0.00,WUHU216HW,2013-01-26 10:46:00,
2013-01-26 03:51:00,50.8,38.6,30.09,SW,225,0.0,1.6,63,0.00,,,0.00,WUHU216HW,2013-01-26 10:51:00,
2013-01-26 03:56:00,50.6,38.4,30.08,West,270,0.0,1.1,63,0.00,,,0.00,WUHU216HW,2013-01-26 10:56:00,
2013-01-26 04:01:00,50.4,38.6,30.08,WNW,293,0.0,0.4,64,0.00,,,0.00,WUHU216HW,2013-01-26 11:01:00,
2013-01-26 04:06:00,50.2,38.4,30.08,NNW,338,0.0,0.4,64,0.00,,,0.00,WUHU216HW,2013-01-26 11:06:00,
2013-01-26 04:11:00,50.0,37.9,30.07,NNW,338,0.0,0.2,63,0.00,,,0.00,WUHU216HW,2013-01-26 11:11:00,
2013-01-26 04:16:00,49.9,37.7,30.07,NNW,338,0.0,0.0,63,0.00,,,0.00,WUHU216HW,2013-01-26 11:16:00,
2013-01-26 04:21:00,49.7,37.5,30.07,NNW,338,0.0,0.0,63,0.00,,,0.00,WUHU216HW,2013-01-26 11:21:00,
2013-01-26 04:26:00,49.5,37.8,30.07,NNW,338,0.0,0.0,64,0.00,,,0.00,WUHU216HW,2013-01-26 11:26:00,
2013-01-26 04:31:00,49.3,37.6,30.06,North,0,0.2,0.2,64,0.00,,,0.00,WUHU216HW,2013-01-26 11:31:00,
2013-01-26 04:36:00,49.0,37.3,30.06,North,0,0.0,0.2,64,0.00,,,0.00,WUHU216HW,2013-01-26 11:36:00,
2013-01-26 04:41:00,49.0,37.3,30.06,North,0,0.0,0.0,64,0.00,,,0.00,WUHU216HW,2013-01-26 11:41:00,
2013-01-26 04:46:00,48.8,36.7,30.06,North,0,0.0,0.0,63,0.00,,,0.00,WUHU216HW,2013-01-26 11:46:00,
2013-01-26 04:51:00,48.8,36.7,30.06,North,0,0.0,0.0,63,0.00,,,0.00,WUHU216HW,2013-01-26 11:51:00,
2013-01-26 04:56:00,48.6,36.5,30.06,North,0,0.0,0.0,63,0.00,,,0.00,WUHU216HW,2013-01-26 11:56:00,
2013-01-26 05:01:00,48.6,36.5,30.06,North,0,0.0,0.0,63,0.00,,,0.00,WUHU216HW,2013-01-26 12:01:00,
2013-01-26 05:06:00,48.4,36.8,30.06,NE,45,0.0,0.0,64,0.00,,,0.00,WUHU216HW,2013-01-26 12:06:00,
2013-01-26 05:11:00,48.2,36.6,30.06,East,90,0.0,0.0,64,0.00,,,0.00,WUHU216HW,2013-01-26 12:11:00,
2013-01-26 05:16:00,48.2,36.6,30.06,NW,315,0.0,0.4,64,0.00,,,0.00,WUHU216HW,2013-01-26 12:16:00,
2013-01-26 05:21:00,48.1,36.8,30.06,NW,315,0.0,0.4,65,0.00,,,0.00,WUHU216HW,2013-01-26 12:21:00,
2013-01-26 05:26:00,48.2,37.0,30.06,NW,315,0.0,0.0,65,0.00,,,0.00,WUHU216HW,2013-01-26 12:26:00,
2013-01-26 05:31:00,48.2,37.0,30.05,NW,315,0.0,0.0,65,0.00,,,0.00,WUHU216HW,2013-01-26 12:31:00,
2013-01-26 05:36:00,48.2,37.0,30.05,NW,315,0.0,0.0,65,0.00,,,0.00,WUHU216HW,2013-01-26 12:36:00,
2013-01-26 05:41:00,48.1,36.8,30.05,North,0,0.4,0.9,65,0.00,,,0.00,WUHU216HW,2013-01-26 12:41:00,
2013-01-26 05:46:00,48.1,36.8,30.04,North,0,1.1,1.1,65,0.00,,,0.00,WUHU216HW,2013-01-26 12:46:00,
2013-01-26 05:51:00,48.1,37.2,30.04,North,0,0.9,1.3,66,0.00,,,0.00,WUHU216HW,2013-01-26 12:51:00,
2013-01-26 05:56:00,48.1,37.2,30.04,NNE,23,0.7,1.8,66,0.00,,,0.00,WUHU216HW,2013-01-26 12:56:00,
2013-01-26 06:01:00,47.9,36.6,30.05,NNE,23,1.8,1.8,65,0.00,,,0.00,WUHU216HW,2013-01-26 13:01:00,
2013-01-26 06:06:00,47.7,36.9,30.05,North,0,0.4,1.8,66,0.00,,,0.00,WUHU216HW,2013-01-26 13:06:00,
2013-01-26 06:11:00,47.7,37.6,30.04,North,0,0.9,1.8,68,0.00,,,0.00,WUHU216HW,2013-01-26 13:11:00,
2013-01-26 06:16:00,47.7,37.6,30.05,North,0,1.1,2.0,68,0.00,,,0.00,WUHU216HW,2013-01-26 13:16:00,
2013-01-26 06:21:00,47.9,38.2,30.05,North,0,0.4,2.0,69,0.00,,,0.00,WUHU216HW,2013-01-26 13:21:00,
2013-01-26 06:26:00,47.9,38.2,30.05,NNE,23,0.7,1.6,69,0.00,,,0.00,WUHU216HW,2013-01-26 13:26:00,
2013-01-26 06:31:00,47.9,37.8,30.05,NNE,23,1.1,1.8,68,0.00,,,0.00,WUHU216HW,2013-01-26 13:31:00,
2013-01-26 06:36:00,47.9,37.8,30.05,North,0,0.9,1.8,68,0.00,,,0.00,WUHU216HW,2013-01-26 13:36:00,
2013-01-26 06:41:00,47.9,38.2,30.05,North,0,0.4,1.8,69,0.00,,,0.00,WUHU216HW,2013-01-26 13:41:00,
2013-01-26 06:46:00,48.1,38.4,30.05,NE,45,1.1,1.1,69,0.00,,,0.00,WUHU216HW,2013-01-26 13:46:00,
2013-01-26 06:51:00,48.1,38.0,30.05,NNE,23,1.8,1.8,68,0.00,,,0.00,WUHU216HW,2013-01-26 13:51:00,
2013-01-26 06:56:00,48.1,38.0,30.05,North,0,0.7,1.8,68,0.00,,,0.00,WUHU216HW,2013-01-26 13:56:00,
2013-01-26 07:01:00,48.2,38.2,30.05,North,0,1.1,1.8,68,0.00,,,0.00,WUHU216HW,2013-01-26 14:01:00,
2013-01-26 07:06:00,48.4,38.7,30.05,NNE,23,1.1,1.6,69,0.00,,,0.00,WUHU216HW,2013-01-26 14:06:00,
2013-01-26 07:11:00,48.6,38.5,30.05,North,0,0.7,1.8,68,0.00,,,0.00,WUHU216HW,2013-01-26 14:11:00,
2013-01-26 07:16:00,48.6,38.5,30.05,North,0,1.1,1.8,68,0.00,,,0.00,WUHU216HW,2013-01-26 14:16:00,
2013-01-26 07:21:00,48.8,38.6,30.05,North,0,0.9,1.6,68,0.00,,,0.00,WUHU216HW,2013-01-26 14:21:00,
2013-01-26 07:26:00,49.0,38.8,30.04,North,0,1.1,1.8,68,0.00,,,0.00,WUHU216HW,2013-01-26 14:26:00,
2013-01-26 07:31:00,49.3,39.2,30.05,North,0,1.8,2.5,68,0.00,,,0.00,WUHU216HW,2013-01-26 14:31:00,
2013-01-26 07:36:00,49.5,39.0,30.05,North,0,2.0,2.5,67,0.00,,,0.00,WUHU216HW,2013-01-26 14:36:00,
2013-01-26 07:41:00,49.9,38.9,30.05,North,0,1.8,2.9,66,0.00,,,0.00,WUHU216HW,2013-01-26 14:41:00,
2013-01-26 07:46:00,50.0,39.1,30.05,North,0,1.8,3.4,66,0.00,,,0.00,WUHU216HW,2013-01-26 14:46:00,
2013-01-26 07:51:00,50.0,39.1,30.05,North,0,1.6,3.4,66,0.00,,,0.00,WUHU216HW,2013-01-26 14:51:00,
2013-01-26 07:56:00,50.2,39.7,30.05,NNE,23,1.1,3.4,67,0.00,,,0.00,WUHU216HW,2013-01-26 14:56:00,
2013-01-26 08:01:00,50.4,39.4,30.06,North,0,1.3,1.8,66,0.00,,,0.00,WUHU216HW,2013-01-26 15:01:00,
2013-01-26 08:06:00,50.6,40.1,30.06,NNW,338,0.4,2.2,67,0.00,,,0.00,WUHU216HW,2013-01-26 15:06:00,
2013-01-26 08:11:00,50.6,39.6,30.06,NNE,23,0.9,2.2,66,0.00,,,0.00,WUHU216HW,2013-01-26 15:11:00,
2013-01-26 08:16:00,50.8,39.4,30.07,NE,45,0.0,1.8,65,0.00,,,0.00,WUHU216HW,2013-01-26 15:16:00,
2013-01-26 08:21:00,50.9,39.5,30.06,North,0,0.4,1.3,65,0.00,,,0.00,WUHU216HW,2013-01-26 15:21:00,
2013-01-26 08:26:00,51.1,39.7,30.07,NNW,338,0.9,1.6,65,0.00,,,0.00,WUHU216HW,2013-01-26 15:26:00,
2013-01-26 08:31:00,51.3,39.5,30.07,NNW,338,0.7,1.8,64,0.00,,,0.00,WUHU216HW,2013-01-26 15:31:00,
2013-01-26 08:36:00,51.5,39.7,30.07,NNW,338,1.1,2.0,64,0.00,,,0.00,WUHU216HW,2013-01-26 15:36:00,
2013-01-26 08:41:00,51.8,40.0,30.07,NNW,338,0.7,2.0,64,0.00,,,0.00,WUHU216HW,2013-01-26 15:41:00,
2013-01-26 08:46:00,52.2,40.0,30.07,North,0,0.9,1.1,63,0.00,,,0.00,WUHU216HW,2013-01-26 15:46:00,
2013-01-26 08:51:00,52.6,40.3,30.08,North,0,0.0,0.9,63,0.00,,,0.00,WUHU216HW,2013-01-26 15:51:00,
2013-01-26 08:56:00,53.1,40.8,30.08,NNE,23,0.4,0.9,63,0.00,,,0.00,WUHU216HW,2013-01-26 15:56:00,
2013-01-26 09:01:00,53.5,40.8,30.08,ENE,68,0.4,1.3,62,0.00,,,0.00,WUHU216HW,2013-01-26 16:01:00,
2013-01-26 09:06:00,53.6,40.5,30.08,ENE,68,1.3,1.3,61,0.00,,,0.00,WUHU216HW,2013-01-26 16:06:00,
2013-01-26 09:11:00,54.0,40.9,30.08,ENE,68,0.0,1.3,61,0.00,,,0.00,WUHU216HW,2013-01-26 16:11:00,
2013-01-26 09:16:00,54.4,40.8,30.08,ESE,113,0.0,1.3,60,0.00,,,0.00,WUHU216HW,2013-01-26 16:16:00,
2013-01-26 09:21:00,54.9,41.3,30.08,ESE,113,0.9,1.3,60,0.00,,,0.00,WUHU216HW,2013-01-26 16:21:00,
2013-01-26 09:26:00,55.3,40.7,30.08,East,90,1.1,1.8,58,0.00,,,0.00,WUHU216HW,2013-01-26 16:26:00,
2013-01-26 09:31:00,55.4,40.9,30.08,SE,135,0.0,1.8,58,0.00,,,0.00,WUHU216HW,2013-01-26 16:31:00,
2013-01-26 09:36:00,55.8,41.2,30.09,ESE,113,0.9,1.6,58,0.00,,,0.00,WUHU216HW,2013-01-26 16:36:00,
2013-01-26 09:41:00,56.5,41.4,30.09,SSW,203,0.0,0.9,57,0.00,,,0.00,WUHU216HW,2013-01-26 16:41:00,
2013-01-26 09:46:00,56.9,41.8,30.09,SSW,203,0.4,0.9,57,0.00,,,0.00,WUHU216HW,2013-01-26 16:46:00,
2013-01-26 09:51:00,57.4,41.9,30.09,SSE,158,0.7,1.8,56,0.00,,,0.00,WUHU216HW,2013-01-26 16:51:00,
2013-01-26 09:56:00,57.6,41.6,30.09,SE,135,0.0,1.8,55,0.00,,,0.00,WUHU216HW,2013-01-26 16:56:00,
2013-01-26 10:01:00,57.8,42.2,30.09,ESE,113,0.4,1.3,56,0.00,,,0.00,WUHU216HW,2013-01-26 17:01:00,
2013-01-26 10:06:00,57.8,41.7,30.08,East,90,0.7,1.3,55,0.00,,,0.00,WUHU216HW,2013-01-26 17:06:00,
2013-01-26 10:11:00,57.8,41.2,30.08,ESE,113,0.9,1.6,54,0.00,,,0.00,WUHU216HW,2013-01-26 17:11:00,
2013-01-26 10:16:00,57.6,41.0,30.08,NNW,338,0.2,1.6,54,0.00,,,0.00,WUHU216HW,2013-01-26 17:16:00,
2013-01-26 10:21:00,57.2,40.8,30.08,North,0,0.4,1.1,54,0.00,,,0.00,WUHU216HW,2013-01-26 17:21:00,
2013-01-26 10:26:00,57.1,40.6,30.09,WNW,293,0.4,1.8,54,0.00,,,0.00,WUHU216HW,2013-01-26 17:26:00,
2013-01-26 10:31:00,57.2,40.8,30.09,West,270,2.2,2.9,54,0.00,,,0.00,WUHU216HW,2013-01-26 17:31:00,
2013-01-26 10:36:00,57.2,40.8,30.09,NNW,338,0.2,3.8,54,0.00,,,0.00,WUHU216HW,2013-01-26 17:36:00,
2013-01-26 10:41:00,57.2,40.8,30.09,WNW,293,0.0,3.8,54,0.00,,,0.00,WUHU216HW,2013-01-26 17:41:00,
2013-01-26 10:46:00,57.1,41.9,30.09,NNW,338,0.4,2.0,57,0.00,,,0.00,WUHU216HW,2013-01-26 17:46:00,
2013-01-26 10:51:00,56.9,42.8,30.09,NE,45,0.4,0.9,59,0.00,,,0.00,WUHU216HW,2013-01-26 17:51:00,
2013-01-26 10:56:00,56.7,44.2,30.06,NE,45,2.9,3.1,63,0.00,,,0.00,WUHU216HW,2013-01-26 17:56:00,
2013-01-26 11:01:00,56.3,44.3,30.06,NE,45,2.2,4.7,64,0.00,,,0.00,WUHU216HW,2013-01-26 18:01:00,
2013-01-26 11:06:00,56.2,44.1,30.06,ENE,68,1.6,4.7,64,0.00,,,0.00,WUHU216HW,2013-01-26 18:06:00,
2013-01-26 11:11:00,56.2,44.1,30.08,ESE,113,1.6,3.8,64,0.00,,,0.00,WUHU216HW,2013-01-26 18:11:00,
2013-01-26 11:16:00,56.2,44.1,30.09,SSW,203,2.9,4.3,64,0.00,,,0.00,WUHU216HW,2013-01-26 18:16:00,
2013-01-26 11:21:00,56.0,43.9,30.10,SSW,203,1.3,4.3,64,0.01,,,0.01,WUHU216HW,2013-01-26 18:21:00,
2013-01-26 11:26:00,55.8,44.2,30.08,East,90,2.2,4.0,65,0.01,,,0.01,WUHU216HW,2013-01-26 18:26:00,
2013-01-26 11:31:00,55.4,44.6,30.08,WNW,293,2.0,2.7,67,0.01,,,0.01,WUHU216HW,2013-01-26 18:31:00,
2013-01-26 11:36:00,55.3,46.1,30.07,SW,225,0.7,2.7,71,0.01,,,0.01,WUHU216HW,2013-01-26 18:36:00,
2013-01-26 11:41:00,55.1,46.3,30.06,NE,45,0.7,2.2,72,0.03,,,0.03,WUHU216HW,2013-01-26 18:41:00,
2013-01-26 11:46:00,54.9,46.5,30.06,NE,45,0.9,2.2,73,0.03,,,0.03,WUHU216HW,2013-01-26 18:46:00,
2013-01-26 11:51:00,54.9,47.4,30.06,ESE,113,2.9,3.8,76,0.03,,,0.03,WUHU216HW,2013-01-26 18:51:00,
2013-01-26 11:56:00,55.1,47.6,30.04,ENE,68,3.4,4.0,76,0.03,,,0.03,WUHU216HW,2013-01-26 18:56:00,
2013-01-26 12:01:00,55.3,47.1,30.05,ESE,113,3.4,4.0,74,0.03,,,0.03,WUHU216HW,2013-01-26 19:01:00,
2013-01-26 12:06:00,55.6,47.4,30.04,East,90,1.8,4.0,74,0.03,,,0.03,WUHU216HW,2013-01-26 19:06:00,
2013-01-26 12:11:00,56.2,47.3,30.04,East,90,1.8,4.0,72,0.03,,,0.03,WUHU216HW,2013-01-26 19:11:00,
2013-01-26 12:16:00,56.9,47.2,30.04,ESE,113,1.8,3.4,70,0.03,,,0.03,WUHU216HW,2013-01-26 19:16:00,
2013-01-26 12:21:00,57.6,46.7,30.03,ESE,113,2.9,4.5,67,0.02,,,0.03,WUHU216HW,2013-01-26 19:21:00,
2013-01-26 12:26:00,58.0,46.3,30.03,ESE,113,1.8,4.5,65,0.02,,,0.03,WUHU216HW,2013-01-26 19:26:00,
2013-01-26 12:31:00,58.5,46.7,30.03,SSE,158,1.3,4.0,65,0.02,,,0.03,WUHU216HW,2013-01-26 19:31:00,
2013-01-26 12:36:00,59.4,47.2,30.02,SSW,203,1.8,2.5,64,0.02,,,0.03,WUHU216HW,2013-01-26 19:36:00,
2013-01-26 12:41:00,60.5,48.2,30.02,SSW,203,2.5,2.7,64,0.00,,,0.03,WUHU216HW,2013-01-26 19:41:00,
2013-01-26 12:46:00,61.4,48.7,30.01,SSE,158,3.4,4.0,63,0.00,,,0.03,WUHU216HW,2013-01-26 19:46:00,
2013-01-26 12:51:00,61.6,48.1,30.01,SE,135,2.7,4.0,61,0.00,,,0.03,WUHU216HW,2013-01-26 19:51:00,
2013-01-26 12:56:00,61.6,47.2,30.01,ESE,113,2.5,4.3,59,0.00,,,0.03,WUHU216HW,2013-01-26 19:56:00,
2013-01-26 13:01:00,61.6,47.6,30.01,SSE,158,2.9,4.7,60,0.00,,,0.03,WUHU216HW,2013-01-26 20:01:00,
2013-01-26 13:06:00,61.4,46.5,30.01,East,90,2.9,6.3,58,0.00,,,0.03,WUHU216HW,2013-01-26 20:06:00,
2013-01-26 13:11:00,61.2,46.8,30.01,SE,135,2.7,6.3,59,0.00,,,0.03,WUHU216HW,2013-01-26 20:11:00,
2013-01-26 13:16:00,61.4,46.5,30.01,SSW,203,3.1,4.0,58,0.00,,,0.03,WUHU216HW,2013-01-26 20:16:00,
2013-01-26 13:21:00,61.4,46.5,30.01,SSE,158,2.5,6.0,58,0.00,,,0.03,WUHU216HW,2013-01-26 20:21:00,
2013-01-26 13:26:00,61.6,46.6,30.00,SSW,203,2.0,6.0,58,0.00,,,0.03,WUHU216HW,2013-01-26 20:26:00,
2013-01-26 13:31:00,61.9,47.0,30.00,SSE,158,1.8,4.7,58,0.00,,,0.03,WUHU216HW,2013-01-26 20:31:00,
2013-01-26 13:36:00,62.1,46.6,30.00,SSW,203,4.0,5.8,57,0.00,,,0.03,WUHU216HW,2013-01-26 20:36:00,
2013-01-26 13:41:00,62.3,46.4,29.99,South,180,2.5,5.8,56,0.00,,,0.03,WUHU216HW,2013-01-26 20:41:00,
2013-01-26 13:46:00,62.3,45.8,29.99,SSE,158,0.4,4.3,55,0.00,,,0.03,WUHU216HW,2013-01-26 20:46:00,
2013-01-26 13:51:00,62.5,46.0,29.99,SE,135,1.8,3.4,55,0.00,,,0.03,WUHU216HW,2013-01-26 20:51:00,
2013-01-26 13:56:00,62.6,46.2,29.99,SSE,158,2.5,2.9,55,0.00,,,0.03,WUHU216HW,2013-01-26 20:56:00,
2013-01-26 14:01:00,62.8,46.4,29.98,SSE,158,2.2,4.3,55,0.00,,,0.03,WUHU216HW,2013-01-26 21:01:00,
2013-01-26 14:06:00,63.0,46.5,29.98,SE,135,0.9,4.3,55,0.00,,,0.03,WUHU216HW,2013-01-26 21:06:00,
2013-01-26 14:11:00,63.0,46.5,29.98,SE,135,0.7,3.8,55,0.00,,,0.03,WUHU216HW,2013-01-26 21:11:00,
2013-01-26 14:16:00,63.5,47.0,29.98,ENE,68,4.0,4.0,55,0.00,,,0.03,WUHU216HW,2013-01-26 21:16:00,
2013-01-26 14:21:00,63.7,47.2,29.98,SSW,203,1.1,4.0,55,0.00,,,0.03,WUHU216HW,2013-01-26 21:21:00,
2013-01-26 14:26:00,64.3,47.2,29.98,South,180,1.1,4.0,54,0.00,,,0.03,WUHU216HW,2013-01-26 21:26:00,
2013-01-26 14:31:00,64.6,47.0,29.98,SSE,158,3.6,5.4,53,0.00,,,0.03,WUHU216HW,2013-01-26 21:31:00,
2013-01-26 14:36:00,64.4,45.8,29.98,ESE,113,4.7,5.4,51,0.00,,,0.03,WUHU216HW,2013-01-26 21:36:00,
2013-01-26 14:41:00,64.4,46.4,29.98,SE,135,3.8,4.9,52,0.00,,,0.03,WUHU216HW,2013-01-26 21:41:00,
2013-01-26 14:46:00,64.4,45.8,29.98,South,180,3.4,4.7,51,0.00,,,0.03,WUHU216HW,2013-01-26 21:46:00,
2013-01-26 14:51:00,64.4,45.8,29.98,South,180,2.0,4.5,51,0.00,,,0.03,WUHU216HW,2013-01-26 21:51:00,
2013-01-26 14:56:00,64.4,45.4,29.98,SE,135,2.5,5.8,50,0.00,,,0.03,WUHU216HW,2013-01-26 21:56:00,
2013-01-26 15:01:00,64.1,45.0,29.98,SE,135,5.4,6.3,50,0.00,,,0.03,WUHU216HW,2013-01-26 22:01:00,
2013-01-26 15:06:00,64.1,45.6,29.97,SE,135,4.0,6.3,51,0.00,,,0.03,WUHU216HW,2013-01-26 22:06:00,
2013-01-26 15:11:00,64.1,45.6,29.98,SSE,158,3.4,6.3,51,0.00,,,0.03,WUHU216HW,2013-01-26 22:11:00,
2013-01-26 15:16:00,64.4,45.8,29.98,SSE,158,3.4,7.6,51,0.00,,,0.03,WUHU216HW,2013-01-26 22:16:00,
2013-01-26 15:21:00,65.0,45.9,29.98,SSE,158,2.9,8.3,50,0.00,,,0.03,WUHU216HW,2013-01-26 22:21:00,
2013-01-26 15:26:00,65.2,46.1,29.98,SE,135,2.9,8.3,50,0.00,,,0.03,WUHU216HW,2013-01-26 22:26:00,
2013-01-26 15:31:00,65.7,45.5,29.97,SSE,158,6.3,6.7,48,0.00,,,0.03,WUHU216HW,2013-01-26 22:31:00,
2013-01-26 15:36:00,65.7,45.5,29.97,SSE,158,6.0,6.9,48,0.00,,,0.03,WUHU216HW,2013-01-26 22:36:00,
2013-01-26 15:41:00,65.9,45.6,29.97,SE,135,4.5,6.9,48,0.00,,,0.03,WUHU216HW,2013-01-26 22:41:00,
2013-01-26 15:46:00,65.7,46.0,29.97,East,90,4.3,6.3,49,0.00,,,0.03,WUHU216HW,2013-01-26 22:46:00,
2013-01-26 15:51:00,66.2,46.0,29.97,SSE,158,2.5,5.4,48,0.00,,,0.03,WUHU216HW,2013-01-26 22:51:00,
2013-01-26 15:56:00,66.2,46.0,29.97,SSE,158,4.7,6.3,48,0.00,,,0.03,WUHU216HW,2013-01-26 22:56:00,
2013-01-26 16:01:00,66.1,45.8,29.97,SSE,158,3.6,6.5,48,0.00,,,0.03,WUHU216HW,2013-01-26 23:01:00,
2013-01-26 16:06:00,65.9,45.6,29.97,SSE,158,4.7,6.5,48,0.00,,,0.03,WUHU216HW,2013-01-26 23:06:00,
2013-01-26 16:11:00,65.9,45.6,29.97,SE,135,3.4,5.6,48,0.00,,,0.03,WUHU216HW,2013-01-26 23:11:00,
2013-01-26 16:16:00,66.1,45.8,29.97,SE,135,4.3,5.6,48,0.00,,,0.03,WUHU216HW,2013-01-26 23:16:00,
2013-01-26 16:21:00,66.2,45.4,29.96,SSE,158,2.9,5.4,47,0.00,,,0.03,WUHU216HW,2013-01-26 23:21:00,
2013-01-26 16:26:00,65.9,45.0,29.97,SSE,158,1.8,5.4,47,0.00,,,0.03,WUHU216HW,2013-01-26 23:26:00,
2013-01-26 16:31:00,65.5,45.3,29.97,SSE,158,2.0,4.3,48,0.00,,,0.03,WUHU216HW,2013-01-26 23:31:00,
2013-01-26 16:36:00,65.2,44.9,29.97,SE,135,4.3,4.7,48,0.00,,,0.03,WUHU216HW,2013-01-26 23:36:00,
2013-01-26 16:41:00,65.0,45.4,29.97,SW,225,1.8,5.1,49,0.00,,,0.03,WUHU216HW,2013-01-26 23:41:00,
2013-01-26 16:46:00,64.8,45.2,29.97,ENE,68,2.5,5.1,49,0.00,,,0.03,WUHU216HW,2013-01-26 23:46:00,
2013-01-26 16:51:00,64.6,45.0,29.97,ESE,113,2.2,4.0,49,0.00,,,0.03,WUHU216HW,2013-01-26 23:51:00,
2013-01-26 16:56:00,64.6,45.0,29.97,SW,225,2.5,4.0,49,0.00,,,0.03,WUHU216HW,2013-01-26 23:56:00,
2013-01-26 17:01:00,64.4,44.8,29.97,SSW,203,4.9,4.9,49,0.00,,,0.03,WUHU216HW,2013-01-27 00:01:00,
2013-01-26 17:06:00,64.4,44.8,29.97,SSW,203,2.7,4.9,49,0.00,,,0.03,WUHU216HW,2013-01-27 00:06:00,
2013-01-26 17:11:00,64.4,44.8,29.97,West,270,1.1,4.9,49,0.00,,,0.03,WUHU216HW,2013-01-27 00:11:00,
2013-01-26 17:16:00,64.3,45.2,29.97,West,270,0.0,2.5,50,0.00,,,0.03,WUHU216HW,2013-01-27 00:16:00,
2013-01-26 17:21:00,63.9,44.9,29.98,SW,225,0.7,1.1,50,0.00,,,0.03,WUHU216HW,2013-01-27 00:21:00,
2013-01-26 17:26:00,63.9,45.4,29.98,West,270,2.9,6.0,51,0.00,,,0.03,WUHU216HW,2013-01-27 00:26:00,
2013-01-26 17:31:00,63.7,45.7,29.98,SW,225,1.1,6.3,52,0.00,,,0.03,WUHU216HW,2013-01-27 00:31:00,
2013-01-26 17:36:00,63.5,45.6,29.97,SW,225,0.2,6.3,52,0.00,,,0.03,WUHU216HW,2013-01-27 00:36:00,
2013-01-26 17:41:00,63.2,45.7,29.98,NNW,338,2.9,3.4,53,0.00,,,0.03,WUHU216HW,2013-01-27 00:41:00,
2013-01-26 17:46:00,63.0,45.6,29.98,South,180,1.3,2.9,53,0.00,,,0.03,WUHU216HW,2013-01-27 00:46:00,
2013-01-26 17:51:00,62.6,45.7,29.98,WSW,248,1.8,4.0,54,0.00,,,0.03,WUHU216HW,2013-01-27 00:51:00,
2013-01-26 17:56:00,62.5,46.0,29.99,SW,225,0.4,4.7,55,0.00,,,0.03,WUHU216HW,2013-01-27 00:56:00,
2013-01-26 18:01:00,62.5,46.5,29.99,WSW,248,2.9,4.9,56,0.00,,,0.03,WUHU216HW,2013-01-27 01:01:00,
2013-01-26 18:06:00,62.5,47.4,29.99,WSW,248,7.6,7.6,58,0.00,,,0.03,WUHU216HW,2013-01-27 01:06:00,
2013-01-26 18:11:00,62.3,47.4,29.99,WSW,248,3.6,7.6,58,0.00,,,0.03,WUHU216HW,2013-01-27 01:11:00,
2013-01-26 18:16:00,61.9,47.4,29.99,SSW,203,5.1,7.6,59,0.00,,,0.03,WUHU216HW,2013-01-27 01:16:00,
2013-01-26 18:21:00,61.7,47.4,29.99,SW,225,2.0,5.1,59,0.00,,,0.03,WUHU216HW,2013-01-27 01:21:00,
2013-01-26 18:26:00,61.6,47.2,29.99,SSW,203,1.8,5.1,59,0.00,,,0.03,WUHU216HW,2013-01-27 01:26:00,
2013-01-26 18:31:00,61.6,47.2,29.99,WSW,248,2.5,5.4,59,0.00,,,0.03,WUHU216HW,2013-01-27 01:31:00,
2013-01-26 18:36:00,61.6,47.2,30.00,SW,225,3.4,6.3,59,0.00,,,0.03,WUHU216HW,2013-01-27 01:36:00,
2013-01-26 18:41:00,61.9,47.4,30.00,WSW,248,3.4,6.9,59,0.00,,,0.03,WUHU216HW,2013-01-27 01:41:00,
2013-01-26 18:46:00,61.7,48.6,30.00,West,270,5.6,12.5,62,0.01,,,0.05,WUHU216HW,2013-01-27 01:46:00,
2013-01-26 18:51:00,61.9,48.8,30.00,SW,225,6.5,13.4,62,0.01,,,0.05,WUHU216HW,2013-01-27 01:51:00,
2013-01-26 18:56:00,61.6,48.4,30.00,South,180,2.2,13.4,62,0.01,,,0.05,WUHU216HW,2013-01-27 01:56:00,
2013-01-26 19:01:00,61.2,48.2,30.00,SW,225,2.5,6.5,62,0.01,,,0.05,WUHU216HW,2013-01-27 02:01:00,
2013-01-26 19:06:00,60.8,48.3,30.00,West,270,2.7,4.7,63,0.01,,,0.05,WUHU216HW,2013-01-27 02:06:00,
2013-01-26 19:11:00,60.8,48.3,30.00,West,270,6.3,8.9,63,0.01,,,0.05,WUHU216HW,2013-01-27 02:11:00,
2013-01-26 19:16:00,61.2,47.7,30.00,West,270,6.3,10.5,61,0.01,,,0.05,WUHU216HW,2013-01-27 02:16:00,
2013-01-26 19:21:00,61.4,47.9,30.00,WSW,248,6.0,10.5,61,0.01,,,0.05,WUHU216HW,2013-01-27 02:21:00,
2013-01-26 19:26:00,61.4,48.3,30.00,SSE,158,3.4,7.4,62,0.01,,,0.05,WUHU216HW,2013-01-27 02:26:00,
2013-01-26 19:31:00,61.0,48.0,30.00,West,270,8.7,8.7,62,0.01,,,0.05,WUHU216HW,2013-01-27 02:31:00,
2013-01-26 19:36:00,61.0,48.0,30.00,SW,225,2.7,8.9,62,0.01,,,0.05,WUHU216HW,2013-01-27 02:36:00,
2013-01-26 19:41:00,61.0,48.0,30.00,WSW,248,9.8,9.8,62,0.00,,,0.05,WUHU216HW,2013-01-27 02:41:00,
2013-01-26 19:46:00,61.4,48.3,30.01,West,270,4.3,11.0,62,0.00,,,0.05,WUHU216HW,2013-01-27 02:46:00,
2013-01-26 19:51:00,61.4,48.3,30.00,West,270,3.8,11.0,62,0.00,,,0.05,WUHU216HW,2013-01-27 02:51:00,
2013-01-26 19:56:00,61.2,48.2,30.00,WSW,248,2.9,8.1,62,0.00,,,0.05,WUHU216HW,2013-01-27 02:56:00,
2013-01-26 20:01:00,61.2,48.2,30.00,North,0,1.1,8.1,62,0.00,,,0.05,WUHU216HW,2013-01-27 03:01:00,
2013-01-26 20:06:00,61.0,48.0,30.00,WNW,293,4.5,8.1,62,0.00,,,0.05,WUHU216HW,2013-01-27 03:06:00,
2013-01-26 20:11:00,60.8,48.3,30.01,West,270,3.1,6.9,63,0.00,,,0.05,WUHU216HW,2013-01-27 03:11:00,
2013-01-26 20:16:00,60.8,48.6,30.01,WNW,293,2.2,8.1,64,0.00,,,0.05,WUHU216HW,2013-01-27 03:16:00,
2013-01-26 20:21:00,60.7,48.1,30.01,WSW,248,5.4,10.5,63,0.00,,,0.05,WUHU216HW,2013-01-27 03:21:00,
2013-01-26 20:26:00,60.5,47.4,30.01,WSW,248,3.1,10.5,62,0.00,,,0.05,WUHU216HW,2013-01-27 03:26:00,
2013-01-26 20:31:00,60.1,46.7,30.01,WSW,248,6.3,7.6,61,0.00,,,0.05,WUHU216HW,2013-01-27 03:31:00,
2013-01-26 20:36:00,59.9,46.1,30.01,SW,225,6.0,10.5,60,0.00,,,0.05,WUHU216HW,2013-01-27 03:36:00,
2013-01-26 20:41:00,60.1,45.8,30.01,WSW,248,5.1,11.0,59,0.00,,,0.05,WUHU216HW,2013-01-27 03:41:00,
2013-01-26 20:46:00,60.3,45.0,30.01,West,270,6.9,11.0,57,0.00,,,0.05,WUHU216HW,2013-01-27 03:46:00,
2013-01-26 20:51:00,60.3,45.5,30.01,WSW,248,3.4,12.1,58,0.00,,,0.05,WUHU216HW,2013-01-27 03:51:00,
2013-01-26 20:56:00,60.3,45.5,30.01,WNW,293,8.5,13.4,58,0.00,,,0.05,WUHU216HW,2013-01-27 03:56:00,
2013-01-26 21:01:00,60.1,45.3,30.01,WNW,293,10.5,13.4,58,0.00,,,0.05,WUHU216HW,2013-01-27 04:01:00,
2013-01-26 21:06:00,60.1,45.3,30.01,WNW,293,6.3,12.8,58,0.00,,,0.05,WUHU216HW,2013-01-27 04:06:00,
2013-01-26 21:11:00,59.9,45.1,30.01,West,270,5.4,12.8,58,0.00,,,0.05,WUHU216HW,2013-01-27 04:11:00,
2013-01-26 21:16:00,59.8,45.5,30.01,WNW,293,2.5,8.3,59,0.00,,,0.05,WUHU216HW,2013-01-27 04:16:00,
2013-01-26 21:21:00,59.4,45.1,30.01,West,270,6.5,9.2,59,0.00,,,0.05,WUHU216HW,2013-01-27 04:21:00,
2013-01-26 21:26:00,59.4,44.7,30.01,West,270,7.6,10.7,58,0.00,,,0.05,WUHU216HW,2013-01-27 04:26:00,
2013-01-26 21:31:00,59.4,45.1,30.01,WSW,248,3.1,10.7,59,0.00,,,0.05,WUHU216HW,2013-01-27 04:31:00,
2013-01-26 21:36:00,59.2,45.4,30.01,West,270,5.1,10.1,60,0.00,,,0.05,WUHU216HW,2013-01-27 04:36:00,
2013-01-26 21:41:00,59.2,45.4,30.01,NW,315,2.7,11.9,60,0.00,,,0.05,WUHU216HW,2013-01-27 04:41:00,
2013-01-26 21:46:00,59.0,45.2,30.02,WNW,293,2.5,11.9,60,0.00,,,0.05,WUHU216HW,2013-01-27 04:46:00,
2013-01-26 21:51:00,58.9,44.1,30.02,NW,315,1.6,6.9,58,0.00,,,0.05,WUHU216HW,2013-01-27 04:51:00,
2013-01-26 21:56:00,58.9,44.1,30.01,West,270,7.6,8.3,58,0.00,,,0.05,WUHU216HW,2013-01-27 04:56:00,
2013-01-26 22:00:00,58.9,44.1,30.02,West,270,6.0,9.2,58,0.00,,,0.05,WUHU216HW,2013-01-27 05:00:00,
2013-01-26 22:01:00,59.0,44.3,30.01,WSW,248,6.0,9.2,58,0.00,,,0.05,WUHU216HW,2013-01-27 05:01:00,
2013-01-26 22:02:00,59.0,44.3,30.01,WSW,248,6.0,9.2,58,0.00,,,0.05,WUHU216HW,2013-01-27 05:02:00,
2013-01-26 22:07:00,59.0,44.3,30.01,WSW,248,7.2,9.2,58,0.00,,,0.05,WUHU216HW,2013-01-27 05:07:00,
2013-01-26 22:12:00,59.0,44.7,30.01,NW,315,4.0,10.3,59,0.00,,,0.05,WUHU216HW,2013-01-27 05:12:00,
2013-01-26 22:17:00,59.0,44.7,30.01,WNW,293,6.5,10.3,59,0.00,,,0.05,WUHU216HW,2013-01-27 05:17:00,
2013-01-26 22:22:00,59.0,45.2,30.01,NW,315,3.4,9.2,60,0.00,,,0.05,WUHU216HW,2013-01-27 05:22:00,
2013-01-26 22:27:00,58.9,44.6,30.01,NW,315,5.8,9.8,59,0.00,,,0.05,WUHU216HW,2013-01-27 05:27:00,
2013-01-26 22:32:00,58.7,44.8,30.01,West,270,5.8,9.8,60,0.00,,,0.05,WUHU216HW,2013-01-27 05:32:00,
2013-01-26 22:37:00,58.5,44.2,30.01,West,270,3.1,6.3,59,0.00,,,0.05,WUHU216HW,2013-01-27 05:37:00,
2013-01-26 22:42:00,58.5,44.2,30.01,NW,315,2.2,6.0,59,0.00,,,0.05,WUHU216HW,2013-01-27 05:42:00,
2013-01-26 22:47:00,58.7,44.4,30.01,NW,315,2.7,6.3,59,0.00,,,0.05,WUHU216HW,2013-01-27 05:47:00,
2013-01-26 22:52:00,58.7,44.4,30.01,WSW,248,1.8,6.3,59,0.00,,,0.05,WUHU216HW,2013-01-27 05:52:00,
2013-01-26 22:57:00,58.5,44.7,30.01,WNW,293,2.5,4.7,60,0.00,,,0.05,WUHU216HW,2013-01-27 05:57:00,
2013-01-26 23:02:00,58.3,44.1,30.01,NW,315,0.4,4.0,59,0.00,,,0.05,WUHU216HW,2013-01-27 06:02:00,
2013-01-26 23:07:00,58.1,43.9,30.01,WNW,293,3.4,4.0,59,0.00,,,0.05,WUHU216HW,2013-01-27 06:07:00,
2013-01-26 23:12:00,58.1,43.9,30.01,NW,315,2.5,3.6,59,0.00,,,0.05,WUHU216HW,2013-01-27 06:12:00,
2013-01-26 23:17:00,58.3,43.6,30.01,NW,315,0.7,4.9,58,0.00,,,0.05,WUHU216HW,2013-01-27 06:17:00,
2013-01-26 23:22:00,58.5,43.7,30.01,NNW,338,4.0,4.9,58,0.00,,,0.05,WUHU216HW,2013-01-27 06:22:00,
2013-01-26 23:27:00,58.7,43.9,30.01,NNW,338,1.8,5.1,58,0.00,,,0.05,WUHU216HW,2013-01-27 06:27:00,
2013-01-26 23:32:00,59.0,44.3,30.01,NNW,338,4.3,5.1,58,0.00,,,0.05,WUHU216HW,2013-01-27 06:32:00,
2013-01-26 23:37:00,59.0,43.7,30.01,NW,315,2.5,4.9,57,0.00,,,0.05,WUHU216HW,2013-01-27 06:37:00,
2013-01-26 23:42:00,59.0,44.3,30.01,NNW,338,1.6,4.3,58,0.00,,,0.05,WUHU216HW,2013-01-27 06:42:00,
2013-01-26 23:47:00,59.0,44.7,30.01,NW,315,1.1,4.0,59,0.00,,,0.05,WUHU216HW,2013-01-27 06:47:00,
2013-01-26 23:52:00,58.9,44.1,30.01,NNW,338,1.3,4.9,58,0.00,,,0.05,WUHU216HW,2013-01-27 06:52:00,
2013-01-26 23:57:00,58.7,43.9,30.01,WNW,293,3.4,4.9,58,0.00,,,0.05,WUHU216HW,2013-01-27 06:57:00,